Meteo Giornale » Osservazioni meteo Italia » Palermo-Punta Raisi

ore: 14:50 - Osservazioni Meteo Palermo-Punta Raisi
Lat. 38° 11' N Lon. 13° 6' E Alt. 21 metri s.l.m.

nuvoloso Europe/Rome

11 °C

Nuvoloso

Temp. 24 Ore

8 °C

15 °C

Sud

22.2 Km/h

Dew point 8 °C

Umidità 81 %

Visibilità  10 Km

Il sole sorge alle ore 06:47

Il sole tramonta alle ore 17:55

Data e Ora Cielo e Fenomeni T °C DP °C Um. % Pres. hPa Vis. km Vento km/h
Oggi h: 14:50 nuvoloso Nuvoloso 11 8 81 1001 10 S 22.2
Oggi h: 14:20 coperto_pioggia Pioggia Debole 11 7 76 1000 8 S 29.6
Oggi h: 13:50 nuvoloso Nuvoloso 12 6 66 1000 10 S 22.2
Oggi h: 13:20 nuvoloso_piovaschi Rovescio di Pioggia 11 6 71 1000 10 S 22.2
Oggi h: 12:50 nuvoloso_piovaschi Rovescio di Pioggia 10 7 81 1000 7 S 22.2
Oggi h: 12:20 nuvoloso_piovaschi Rovescio di Pioggia 10 7 81 1001 3 S/SO 29.6
Oggi h: 11:50 nuvoloso_piovaschi Rovescio di Pioggia 11 8 81 1001 6 O 38.8
Oggi h: 11:20 nuvoloso Rovescio nelle Vicinanze 12 6 66 1000 10 O/SO 50
Oggi h: 10:50 nuvoloso Nuvoloso 15 6 54 999 10 S 40.7
Oggi h: 10:20 nuvoloso Nuvoloso 14 6 58 999 10 S 40.7
Oggi h: 09:50 nuvoloso Nuvoloso 14 6 58 999 10 S 31.5
Oggi h: 09:20 nuvoloso Nuvoloso 14 6 58 999 10 S 37
Oggi h: 08:50 nuvoloso Nuvoloso 13 5 58 999 10 S/SE 33.3
Oggi h: 08:20 nuvoloso Rovescio nelle Vicinanze 13 5 58 999 10 S 29.6
Oggi h: 07:50 poco_nuvoloso Poco Nuvoloso 13 4 54 999 10 S 27.8
Oggi h: 07:20 nuvoloso Nuvoloso 12 4 57 1000 10 SE 13
Oggi h: 06:50 nuvoloso Nuvoloso 12 3 54 1000 10 N 5.5
Oggi h: 06:20 nuvoloso Nuvoloso 12 3 54 1000 10 N 3.7
Oggi h: 05:50 nuvoloso Nuvoloso 10 4 66 1000 10 E 7.4
Oggi h: 05:20 sereno Sereno 11 3 57 1000 10 N 3.7
Oggi h: 04:50 sereno Sereno 11 3 57 1001 10 N 3.7
Oggi h: 04:20 sereno Sereno 10 4 66 1001 10 S/SE 11.1
Oggi h: 03:50 sereno Sereno 10 4 66 1001 10 S/SE 7.4
Oggi h: 03:20 sereno Sereno 11 4 61 1001 10 S 16.7
Oggi h: 02:50 sereno Sereno 11 3 57 1002 10 S 13
Oggi h: 02:20 sereno Sereno 10 3 61 1002 10 SE 9.3
Oggi h: 01:50 sereno Sereno 9 3 66 1003 10 S/SE 11.1
Oggi h: 01:20 sereno Sereno 9 3 66 1003 10 S/SE 11.1
Oggi h: 00:50 sereno Sereno 9 3 66 1002 10 S 11.1
Oggi h: 00:20 sereno Sereno 9 3 66 1003 10 S 11.1
Ieri h: 23:50 sereno Sereno 9 3 66 1003 10 S/SE 11.1
Ieri h: 23:20 nuvoloso Nuvoloso 8 4 75 1003 10 S 11.1
Ieri h: 22:50 nuvoloso Nuvoloso 9 4 70 1003 10 S 11.1
Ieri h: 22:20 nuvoloso Nuvoloso 9 5 75 1003 10 S 11.1
Ieri h: 21:50 nuvoloso Nuvoloso 10 5 71 1003 10 S 11.1
Ieri h: 21:20 nuvoloso Nuvoloso 11 6 71 1003 10 SO 14.8
Ieri h: 20:50 nuvoloso Nuvoloso 11 5 66 1002 10 O/SO 14.8
Ieri h: 20:20 nuvoloso Nuvoloso 11 5 66 1002 10 SO 16.7
Ieri h: 19:50 nuvoloso Nuvoloso 12 4 57 1002 10 O 20.3
Ieri h: 19:20 nuvoloso Nuvoloso 12 4 57 1002 10 O 20.3
Ieri h: 18:50 nuvoloso Nuvoloso 12 4 57 1002 10 O 22.2
Ieri h: 18:20 nuvoloso Nuvoloso 12 5 62 1002 10 O 24
Ieri h: 17:50 nuvoloso Nuvoloso 12 5 62 1002 10 O 24
Ieri h: 17:20 nuvoloso Nuvoloso 12 4 57 1002 10 O 24
Ieri h: 16:50 nuvoloso Nuvoloso 12 5 62 1001 10 O 25.9
Ieri h: 16:20 nuvoloso Nuvoloso 12 5 62 1001 10 O 27.8
Ieri h: 15:50 nuvoloso_piovaschi Rovescio di Pioggia 12 7 71 1001 10 O/SO 20.3
Ieri h: 15:20 nuvoloso Nuvoloso 12 6 66 1001 10 O 14.8
Ieri h: 14:50 nuvoloso Nuvoloso 12 6 66 1001 10 O 16.7